LANDSAT 4 1 13367U 82072A 10073.86382937 .00000080 00000-0 11205-4 0 3733 2 13367 98.1949 8.8054 0019145 146.9045 213.3391 15.02358197485152 TDRS 1 1 13969U 83026B 10074.23403814 -.00000299 00000-0 10000-3 0 530 2 13969 13.5348 7.1105 0030620 251.5028 302.0774 1.00274642 71717 LANDSAT 5 1 14780U 84021A 10074.09626428 .00000041 00000-0 19112-4 0 6039 2 14780 98.2080 143.3962 0002808 13.9292 346.1984 14.57112363384835 ERBS 1 15354U 84108B 10074.13273005 .00001428 00000-0 88491-4 0 3311 2 15354 56.9860 116.5266 0016506 187.0401 173.0422 15.16057442393144 TDRS 3 1 19548U 88091B 10073.38800311 -.00000287 00000-0 10000-3 0 4557 2 19548 12.3452 37.1313 0036557 319.0192 266.5704 1.00268771 65851 TDRS 4 1 19883U 89021B 10073.25617806 -.00000279 00000-0 10000-3 0 7682 2 19883 11.0869 48.7023 0008472 324.7267 204.6612 1.00267235249420 HST 1 20580U 90037B 10073.56062710 .00000570 00000-0 30868-4 0 5359 2 20580 28.4688 137.5808 0003299 271.7379 88.2944 15.00919352890528 TDRS 5 1 21639U 91054B 10072.43041884 .00000104 00000-0 10000-3 0 6044 2 21639 10.4644 52.4009 0020707 320.9538 144.9166 1.00267331 68163 UARS 1 21701U 91063B 10073.85677515 .00011693 00000-0 13934-3 0 9145 2 21701 56.9700 254.7193 0066480 347.9951 11.9521 15.58990334 21372 TOPEX/POSEIDON 1 22076U 92052A 10072.83900969 -.00000038 00000-0 10000-3 0 4923 2 22076 66.0380 230.6002 0007127 269.0184 91.0010 12.80950853822781 TDRS 6 1 22314U 93003B 10071.59210698 .00000091 00000-0 10000-3 0 6357 2 22314 9.8221 55.3997 0010451 325.3139 191.5535 1.00282206 62874 TDRS 7 1 23613U 95035B 10073.62675103 -.00000185 00000-0 00000+0 0 6898 2 23613 11.6016 45.2029 0034537 318.2434 119.1355 1.00268756 53706 RXTE (XTE) 1 23757U 95074A 10072.90291601 .00002757 00000-0 81871-4 0 808 2 23757 22.9833 272.7930 0008762 127.5433 232.5875 15.27764352787063 TRMM 1 25063U 97074A 10073.22803123 .00008462 00000-0 11939-3 0 3052 2 25063 34.9662 352.3742 0001007 233.3173 126.7457 15.55758747702188 KIKU-7 (ETS-VII) 1 25064U 97074B 10073.45519636 .00001574 00000-0 61902-4 0 309 2 25064 34.9584 125.3816 0004392 179.9666 180.1103 15.25559339682300 ISS (ZARYA) 1 25544U 98067A 10074.35574426 .00022673 00000-0 15949-3 0 7762 2 25544 51.6483 352.3280 0007951 52.9150 46.9057 15.74001890648695 LANDSAT 7 1 25682U 99020A 10074.06274811 .00000083 00000-0 28594-4 0 7018 2 25682 98.2197 143.5989 0001196 105.6768 254.4563 14.57105965580522 FUSE 1 1 25791U 99035A 10073.17871993 .00000231 00000-0 15319-4 0 6532 2 25791 24.9849 112.7515 0010488 229.2707 130.6896 14.41815939565402 TERRA 1 25994U 99068A 10074.08041973 .00000097 00000-0 31546-4 0 5967 2 25994 98.2110 150.0677 0000601 94.1401 265.9870 14.57111338544604 TDRS 8 1 26388U 00034A 10073.79639697 -.00000223 00000-0 10000-3 0 1209 2 26388 2.0269 96.1778 0004374 232.1110 219.8941 1.00273759 35640 EO-1 1 26619U 00075A 10074.11112739 .00000299 00000-0 68931-4 0 9635 2 26619 98.1435 142.6055 0010559 172.7682 187.3708 14.62086254495855 TIMED 1 26998U 01055B 10073.85323728 .00000231 00000-0 31999-4 0 5249 2 26998 74.0745 174.7017 0001755 235.0978 125.0055 14.84145071447673 TDRS 9 1 27389U 02011A 10072.20267263 -.00000288 00000-0 00000+0 0 5029 2 27389 1.8323 215.9398 0017652 157.6934 167.4143 1.00282836 30875 AQUA 1 27424U 02022A 10073.68932323 .00000161 00000-0 45652-4 0 5835 2 27424 98.1996 16.5980 0001659 63.5767 296.5583 14.57123841418150 TDRS 10 1 27566U 02055A 10072.03391507 -.00000272 00000-0 10000-3 0 2300 2 27566 0.4999 299.2622 0002987 327.3691 235.3374 1.00272323 26700 SORCE 1 27651U 03004A 10072.98672217 .00000257 00000-0 47365-4 0 1489 2 27651 39.9959 265.2277 0024255 59.5833 300.7344 14.82280020386330 GALEX 1 27783U 03017A 10073.97993408 .00000353 00000-0 50986-4 0 8934 2 27783 28.9988 51.0469 0004306 228.9560 131.0675 14.59805516367387 GP-B 1 28230U 04014A 10073.13491019 .00000175 00000-0 23171-4 0 7341 2 28230 89.9403 156.1074 0001790 80.8806 279.2617 14.76025818317592 AURA 1 28376U 04026A 10073.48863124 -.00000005 00000-0 89533-5 0 7475 2 28376 98.2021 18.4741 0001407 71.6686 288.4656 14.57119288301178 SWIFT 1 28485U 04047A 10072.59140007 .00001011 00000-0 57177-4 0 5303 2 28485 20.5585 149.7709 0014537 158.0722 202.0427 14.92685839289973 THEMIS A 1 30580U 07004A 10073.79166667 -.00000448 00000-0 10000-3 0 6679 2 30580 8.5025 228.6190 7465648 151.6046 333.5498 1.00274877 10618 THEMIS B 1 30581U 07004B 10050.78125000 -.00184005 00000-0 10000-3 0 2825 2 30581 22.7111 349.3538 6700495 228.6594 57.2247 0.01493177 6437 THEMIS C 1 30582U 07004C 10048.00000000 -.00004037 00000-0 00000+0 0 4597 2 30582 3.9018 4.5064 9123930 340.9311 229.9652 0.14442210 5703 THEMIS D 1 30797U 07004D 10070.83333333 -.00000451 00000-0 00000+0 0 8173 2 30797 3.6838 225.6371 7580354 155.6830 342.6558 1.00273007 10433 THEMIS E 1 30798U 07004E 10070.83333333 -.00000444 00000-0 00000+0 0 8367 2 30798 3.6834 230.8591 7460863 150.0849 342.6351 1.00276324 10574 C/NOFS 1 32765U 08017A 10073.04592287 .00005300 00000-0 22364-3 0 5036 2 32765 13.0064 352.9357 0309069 138.8528 223.5518 14.82520625103404 AIM 1 31304U 07015A 10073.39327410 .00000717 00000-0 75571-4 0 9842 2 31304 97.8007 176.5481 0012823 48.6601 311.5655 14.92370822157093 FGRST (GLAST) 1 33053U 08029A 10073.05814567 .00000278 00000-0 00000+0 0 4597 2 33053 25.5861 327.0388 0013549 352.8822 7.1588 15.05022997 96583 WISE 1 36119U 09071A 10073.54808216 .00000821 00000-0 50942-4 0 741 2 36119 97.5080 79.4235 0001962 158.0208 202.1107 15.12421114 13596